Regional Weather Roundup
Issued by NWS

Home | Current Version | Previous Version | Text Only | Print | Product List | Glossary On
Versions: 1 2 3 4 5 6 7 8 9 10 11 12 13 14 15 16 17 18 19 20 21 22 23 24 25 26 27 28 29 30 31 32 33 34 35 36 37 38 39 40 41 42 43 44 45 46 47 48 49 50
000
ASUS44 KLIX 310710
RWRLA
LOUISIANA WEATHER ROUNDUP
NATIONAL WEATHER SERVICE NEW ORLEANS LA
200 AM CDT THU JUL 31 2014

NOTE: "FAIR" INDICATES FEW OR NO CLOUDS BELOW 12,000 FEET WITH NO
      SIGNIFICANT WEATHER AND/OR OBSTRUCTIONS TO VISIBILITY.
      SKY/WX - SKY CONDITION AND SIGNIFICANT WEATHER.
      TMP - AIR TEMPERATURE.    DP   - DEWPOINT TEMPERATURE.
      RH  - RELATIVE HUMIDITY.  PRES - PRESSURE.
      HX  - HEAT INDEX.         WCI  - WIND CHILL INDEX.

*  THESE STATIONS ARE NOT NWS OR FAA STATIONS AND ARE NOT UNDER
   NWS QUALITY CONTROL.

LAZ040-048-061>063-065-066-069-310800-
SOUTHEAST LOUISIANA

CITY           SKY/WX    TMP DP  RH WIND       PRES   REMARKS
N.O. AUDUBON     N/A     78  64  60 MISG        N/A
N.O. INTL ARPT CLEAR     76  60  57 E5        30.01S
N.O. LAKEFRONT CLEAR     80  64  58 E12       30.01F
N.O. DOWNTOWN* FAIR      79  61  53 CALM      30.01S
SLIDELL        CLEAR     67  64  90 CALM      30.01F
BATON ROUGE    PTCLDY    70  64  81 CALM      30.01F
BOOTHVILLE     CLEAR     76  67  73 CALM      30.01F
BELLE CHASSE   CLEAR     69  65  86 CALM      30.00F
BOGALUSA*      FAIR      68  63  85 CALM      30.04S
GALLIANO*      NOT AVBL
NEW ROADS*     FAIR      72  65  78 E3        30.01F
GONZALES*      FAIR      68  68  99 CALM      30.01S
HAMMOND*       PTCLDY    70  63  78 CALM      30.03S
HOUMA*         CLEAR     69  64  85 CALM      30.00F
PORT FOURCHON* SUNNY     81  64  57 E5        30.01F

$$

LAZ041-044-053-054-310800-
SOUTHWEST LOUISIANA

CITY           SKY/WX    TMP DP  RH WIND       PRES   REMARKS
LAKE CHARLES   CLEAR     72  67  84 SE3       30.00F
LAFAYETTE      PTCLDY    72  68  87 NE3       30.01S
PATTERSON      CLEAR     72  68  88 CALM      30.04S
SALT POINT       N/A     76  70  82 CALM      30.00S
NEW IBERIA     CLEAR     72  67  84 CALM      30.01F
CHENAULT AIRPK CLEAR     70  65  85 S3        30.01F

$$

LAZ027-028-310800-
CENTRAL LOUISIANA

CITY           SKY/WX    TMP DP  RH WIND       PRES   REMARKS
FORT POLK      CLOUDY    75  63  66 E8        30.02R
ALEXANDRIA INT CLOUDY    76  63  64 E8        30.00S
ALEXANDRIA     MOCLDY    72  66  81 CALM      30.02S

$$

LAZ001-002-310800-
NORTHWEST LOUISIANA

CITY           SKY/WX    TMP DP  RH WIND       PRES   REMARKS
SHREVEPORT     CLOUDY    75  64  68 SE8       30.00F
BARKSDALE AFB  CLOUDY    72  65  76 SE8       30.01F
DTN SHREVEPORT CLOUDY    74  64  71 E6        30.01F

$$

LAZ014-016-310800-
NORTHEAST LOUISIANA

CITY           SKY/WX    TMP DP  RH WIND       PRES   REMARKS
MONROE         MOCLDY    72  64  76 E6        30.04F
TALLULAH       CLOUDY    73  64  73 NE5       30.03F

$$



USA.gov is the U.S. government's official web portal to all federal, state and local government web resources and services.